Regional Weather Roundup
Issued by NWS Goodland, KS

Home | Current Version | Previous Version | Graphics & Text | Print | Product List | Glossary On
Versions: 1 2 3 4 5 6 7 8 9 10 11 12 13 14 15 16 17 18 19 20 21 22 23 24 25 26 27 28 29 30 31 32 33 34 35 36 37 38 39 40 41 42 43 44 45 46 47 48 49 50
000
ASUS43 KGLD 210559
RWRGLD

GOODLAND FORECAST AREA HOURLY WEATHER ROUNDUP
NATIONAL WEATHER SERVICE GOODLAND KS
1200 AM MDT SAT APR 21 2018

...OFFICIAL OBSERVATIONS...

CITY           SKY/WX    TMP DP  RH WIND       PRES   REMARKS
GOODLAND KS    LGT RAIN  40  38  93 SE16G29   30.12S
HILL CITY KS   LGT RAIN  44  42  93 E14       30.22S
IMPERIAL NEB   LGT RAIN  40  39  97 E14       30.21R
MCCOOK NEB     LGT RAIN  42  41  96 E13       30.23R FOG
AKRON CO       LGT RAIN  35  35 100 E16G24    30.12S FOG
BURLINGTON CO  CLOUDY    39  38  96 SE21G31   30.10R
LIMON CO       LGT SNOW  32  32 100 SE5       30.09S VSB 1
$$

...UNOFFICIAL OBSERVATIONS...

CITY           SKY/WX    TMP DP  RH WIND       PRES   REMARKS
NORTON KS      DRIZZLE   43  41  93 E8        30.23
SHARON SPRINGS   N/A     40  38  93 SE12G25     N/A
KIT CARSON CO    N/A     38  34  87 CALM        N/A
YUMA CO        DRIZZLE   34  34 100 E13       30.15R
$$




USA.gov is the U.S. government's official web portal to all federal, state and local government web resources and services.